Temperature
19 17 17 17 18 19 19 19 19 20 20 18 18 18 18 18 18 18 18 19 19 19 18 18 17 17 16 16 15 15 14 14 13 13 13 13 13 13 13 13 13 13 13 13
18 18 18 19 19 19 19 19 19 20 20 19 18 18 18 17 18 19 19 19 19 18 18 18 17 17 16 16 15 14 14 13 13 13 12 12 12 12 12 12 12 12 12 12
18 19 19 19 19 19 19 19 20 20 20 19 19 18 18 18 18 18 19 19 19 19 18 18 17 17 16 16 15 14 14 13 13 13 12 12 12 12 12 12 12 12 12 12
18 19 19 19 19 19 19 20 20 20 19 18 19 17 17 17 17 17 18 18 19 19 18 18 17 17 16 16 15 14 14 13 13 13 12 12 12 12 12 12 12 12 12 12
19 19 19 19 20 19 19 19 19 19 18 17 17 17 17 17 18 17 17 18 19 19 19 18 18 17 17 16 15 14 14 13 13 13 12 12 12 12 12 12 12 12 12 12
19 19 20 20 20 19 19 18 17 15 16 17 17 17 17 16 17 18 17 18 19 19 19 18 18 17 16 16 15 14 14 14 13 13 13 12 12 12 12 12 12 12 12 12
20 20 20 20 20 19 19 18 17 17 16 16 17 17 16 17 17 17 17 19 20 19 19 18 18 17 16 16 15 15 14 14 13 13 13 13 12 12 12 12 12 12 12 12
19 19 20 20 20 19 18 18 17 18 17 16 17 16 17 18 18 18 19 19 20 19 19 18 18 17 17 16 15 15 14 14 14 13 13 13 13 12 12 12 12 12 12 12
18 19 21 21 21 19 18 17 17 16 16 16 16 16 17 19 18 18 18 18 19 19 19 19 18 17 17 16 16 15 15 14 14 14 13 13 13 13 12 12 12 12 12 11
19 19 20 21 20 19 18 15 14 15 16 17 17 17 17 18 18 18 16 18 19 20 19 19 18 18 17 16 16 15 15 15 15 14 14 13 13 13 13 12 12 12 12 12
19 19 20 20 20 20 18 17 14 13 14 15 16 16 17 17 17 17 17 19 20 20 20 19 18 18 17 17 16 16 15 15 15 15 14 14 13 13 13 13 12 12 12 12
17 16 18 19 19 19 19 17 15 16 16 13 14 15 17 16 16 17 18 20 21 21 20 19 19 18 17 17 16 16 16 16 15 15 14 14 14 13 13 13 13 12 12 12
17 17 18 18 18 19 19 17 16 14 13 12 14 16 17 17 17 18 19 20 21 21 20 19 19 18 18 17 17 16 16 16 16 15 15 15 14 14 14 13 13 13 12 12
17 17 18 19 18 18 19 18 15 15 14 13 13 16 17 18 18 18 19 21 21 21 20 20 19 18 18 17 17 17 16 16 16 16 15 15 15 15 14 14 14 13 13 13
18 18 18 18 18 19 19 18 16 16 15 15 16 15 17 17 17 19 20 21 20 20 20 20 19 19 18 18 17 17 17 16 16 16 16 16 15 15 15 14 14 14 13 13
16 18 18 18 19 18 18 18 17 16 16 15 16 16 17 18 19 19 20 20 20 21 20 20 19 19 18 18 17 17 17 17 17 16 16 16 16 16 15 15 15 14 14 14
15 16 16 16 17 18 17 18 17 17 16 16 17 18 18 17 16 19 21 21 21 21 21 20 20 19 19 18 18 18 17 17 17 17 17 16 16 16 16 15 15 15 14 14
15 15 14 15 18 18 18 18 18 18 17 16 17 17 17 18 21 23 23 23 22 22 21 21 20 20 19 19 18 18 18 17 17 17 17 17 17 16 16 16 15 15 15 14
14 14 13 14 16 16 17 18 18 18 18 17 17 18 18 19 19 20 22 23 23 22 22 21 20 20 19 19 18 18 18 18 17 17 17 17 17 17 16 16 16 15 15 15
13 13 13 13 16 17 18 19 19 18 18 19 17 17 17 17 17 19 23 23 22 22 21 21 20 20 19 19 18 18 18 18 18 17 17 17 17 16 16 16 16 15 15 15
15 14 13 13 15 15 17 18 19 19 19 21 20 19 18 17 21 23 23 23 22 21 21 20 20 20 19 19 18 18 18 18 17 17 17 17 16 16 16 16 15 15 15 14
15 14 13 12 14 16 18 18 18 19 21 21 21 21 20 22 22 23 23 23 22 21 20 20 20 19 19 18 18 18 18 17 17 17 17 16 16 16 15 15 15 14 14 14
13 14 13 14 16 17 18 19 21 20 20 21 22 22 22 22 22 22 23 22 22 21 20 20 19 19 19 18 18 18 17 17 17 17 16 16 16 15 15 14 14 13 13 13
13 13 13 13 14 16 19 20 21 21 21 21 22 22 22 22 22 22 22 22 21 21 20 20 19 19 18 18 18 17 17 17 17 16 16 15 15 14 14 13 13 12 12 12
14 13 13 13 14 16 20 20 20 20 21 21 21 22 22 22 22 22 22 22 21 21 20 19 19 19 18 18 17 17 17 16 16 16 15 15 14 13 13 12 11 11 11 11
13 13 13 14 16 15 17 19 19 19 20 20 21 21 22 22 22 22 22 22 21 20 20 19 18 18 18 17 17 17 16 16 15 15 15 14 13 12 11 10 10 9 9 9
Wind_Speed
5 6 6 10 9 5 6 6 6 6 4 6 8 11 9 6 8 9 8 8 9 9 6 5 5 5 4 3 3 2 1 1 1 2 2 2 3 3 3 4 6 6 6 6
5 4 8 7 6 4 5 5 5 4 3 5 5 9 8 7 9 10 11 11 10 8 6 7 6 5 4 4 4 3 2 2 1 1 0 1 1 2 2 3 4 7 6 6
7 5 6 7 6 6 5 6 6 4 2 1 2 8 6 4 5 6 7 8 9 11 11 9 8 7 5 5 6 5 4 3 2 1 1 2 2 3 4 4 4 5 6 5
3 3 6 5 6 7 5 6 5 3 2 3 0 4 8 4 4 6 8 8 10 10 9 9 9 8 7 7 6 5 4 3 2 0 1 1 1 1 2 3 3 5 5 5
3 5 5 6 6 8 4 2 3 2 3 2 1 2 8 3 5 8 9 10 9 10 11 11 10 9 8 7 6 5 4 4 3 1 1 1 0 1 2 2 4 4 5 5
2 2 3 4 1 5 5 6 7 6 5 2 4 5 7 5 8 6 6 9 10 10 10 9 8 7 6 5 5 5 5 5 3 2 1 2 2 1 1 2 3 4 3 4
2 0 1 3 4 3 5 5 4 4 3 6 3 4 9 7 8 8 8 9 9 10 10 9 9 9 8 8 7 6 6 5 4 3 3 3 3 2 2 2 2 2 3 3
4 3 3 4 5 6 5 7 6 4 4 5 2 6 8 7 5 5 6 7 8 9 9 10 11 10 9 9 8 7 7 6 5 5 4 4 3 2 2 3 2 2 2 3
6 4 2 2 3 9 7 4 6 6 2 2 6 8 9 3 1 2 5 7 9 10 10 11 10 9 9 9 9 9 8 7 6 6 5 4 4 4 4 3 2 2 2 2
6 3 1 1 6 5 5 9 6 5 3 4 7 6 6 7 8 6 6 8 9 9 9 9 9 9 9 9 8 7 7 7 6 5 5 4 4 4 4 3 3 3 3 2
3 3 2 1 4 6 5 5 6 5 5 5 4 8 7 9 9 10 10 10 10 10 10 10 10 9 9 7 6 6 7 7 6 6 5 5 4 4 3 3 3 3 2 2
4 5 1 5 3 2 6 8 8 5 4 5 4 8 8 8 9 9 10 9 8 9 9 9 9 8 7 8 7 7 7 7 7 5 5 5 4 3 3 4 4 3 2 2
6 6 2 6 5 1 3 5 5 6 6 6 5 8 5 4 5 7 8 8 7 8 8 7 7 8 9 8 8 7 7 8 6 5 5 5 4 4 5 5 4 3 2 2
6 5 6 7 8 5 4 5 6 7 5 6 9 11 10 8 8 8 8 8 7 7 8 8 8 9 9 8 8 8 8 7 5 5 5 6 6 6 5 5 4 4 3 3
5 4 7 8 7 4 6 7 8 9 10 10 10 11 14 11 11 10 8 8 7 7 8 9 9 9 8 8 8 7 7 6 6 6 6 7 6 5 5 5 5 4 4 4
4 4 3 5 5 5 6 9 9 10 8 9 9 11 13 9 6 7 9 9 10 10 11 11 10 9 9 9 9 8 8 7 6 7 8 6 5 5 6 6 5 5 5 5
5 7 5 5 5 3 7 11 11 9 9 11 13 15 9 7 10 12 12 12 13 12 11 11 11 11 11 10 9 9 8 6 6 7 7 6 5 6 6 6 5 6 6 5
8 7 5 3 1 8 10 6 8 10 11 12 12 11 10 13 11 9 10 13 13 12 11 11 10 10 9 8 7 7 5 6 6 6 6 5 5 6 5 5 6 6 5 5
7 8 5 4 4 8 10 8 7 8 10 11 15 14 8 5 2 4 8 11 12 11 10 10 9 8 7 8 7 7 6 5 5 5 5 5 5 5 5 6 6 5 4 6
5 5 6 5 4 6 10 7 3 4 7 9 11 13 8 10 5 9 8 10 10 8 7 7 7 7 7 7 8 8 6 5 5 5 4 3 3 4 5 5 5 3 4 5
3 3 5 6 6 9 10 4 5 3 8 6 5 8 11 13 11 7 9 9 9 8 7 8 9 8 7 8 9 8 7 5 4 3 2 1 1 2 3 2 2 2 3 3
8 6 7 6 5 9 5 5 6 8 6 6 5 7 12 11 5 6 10 10 10 9 8 9 9 7 6 8 9 8 6 4 3 4 3 2 2 1 1 0 1 1 2 2
7 8 6 9 9 6 3 7 8 6 7 8 6 7 9 9 8 8 9 10 10 10 9 8 10 9 6 6 8 9 6 5 6 6 4 3 3 3 3 3 2 2 2 2
5 1 2 6 9 9 8 7 7 6 8 9 8 7 8 10 10 10 10 10 10 9 10 9 11 10 7 6 6 7 7 7 8 7 5 4 4 4 5 4 3 3 3 3
5 2 3 7 10 11 9 7 8 9 9 9 7 5 8 9 9 11 11 12 11 10 9 10 11 11 9 8 7 7 7 8 8 7 6 5 5 5 4 4 4 4 4 3
6 6 6 9 9 7 13 13 11 12 13 11 8 7 6 9 11 12 12 12 12 12 11 11 11 11 10 9 8 7 7 9 10 7 6 4 4 4 4 4 5 8 7 11
Wind_Direction
105 110 168 191 190 184 179 195 234 249 195 181 226 254 264 208 204 214 210 203 205 210 203 190 189 172 156 160 165 182 208 319 4 15 12 6 352 343 353 358 8 13 16 17
92 189 201 181 179 158 175 209 246 275 186 188 252 273 268 210 207 210 208 205 203 196 187 189 186 179 180 185 192 208 230 268 295 285 267 254 294 312 313 328 359 14 15 14
154 199 159 146 156 170 197 205 220 224 63 71 334 309 296 268 225 213 202 197 195 193 192 189 187 192 191 200 205 210 227 245 266 302 42 33 22 6 0 352 349 347 1 12
149 171 156 157 178 165 226 226 205 162 111 288 74 284 291 294 267 226 212 195 196 195 188 187 188 193 202 211 212 217 227 241 252 238 89 89 71 349 308 309 317 333 358 7
184 170 159 182 200 177 205 57 121 109 131 346 318 201 286 306 258 245 222 207 201 193 187 189 193 196 204 206 208 217 227 245 253 238 172 130 164 260 296 316 335 347 348 356
151 186 186 195 142 157 124 72 59 52 73 307 238 182 277 243 227 241 220 205 198 190 189 192 193 191 205 208 213 217 225 244 249 241 222 202 219 255 319 336 343 341 336 340
46 317 229 152 103 79 101 93 32 352 2 255 265 209 251 258 241 229 220 206 192 184 181 185 188 196 206 209 216 219 224 243 247 239 241 228 229 231 245 273 304 323 331 330
144 259 225 184 171 163 161 141 161 209 235 282 298 239 256 263 269 235 211 187 178 182 186 191 196 198 204 211 216 218 223 238 245 240 245 237 229 225 242 255 260 280 285 293
164 233 295 188 158 134 133 161 158 134 172 280 283 284 300 247 231 170 168 168 186 192 193 198 200 202 207 213 217 215 219 234 243 239 239 240 237 233 246 260 264 273 280 292
151 182 295 137 87 48 136 138 106 119 158 267 295 284 257 250 232 212 199 201 208 201 199 202 203 206 211 217 221 217 219 230 238 236 231 233 236 238 243 254 269 279 292 312
132 147 328 43 187 179 116 104 106 112 147 161 271 277 233 232 223 214 217 214 209 203 202 203 205 209 212 218 219 220 226 232 238 234 229 238 246 243 240 246 262 273 289 306
138 122 218 266 274 192 178 171 149 155 205 177 194 269 268 252 242 221 224 223 216 209 205 202 202 201 206 216 220 221 227 231 234 226 223 235 246 245 242 251 263 265 274 289
140 117 61 344 341 331 198 171 158 130 124 159 183 262 295 297 248 226 226 227 218 209 201 195 195 200 208 215 220 223 227 230 229 214 218 233 241 238 242 251 259 256 257 272
121 128 169 209 230 215 217 186 160 141 164 203 221 248 285 276 252 238 226 220 209 205 197 194 200 208 211 214 217 221 230 227 216 206 214 229 236 235 240 246 248 247 246 254
122 186 220 236 238 213 229 223 186 194 199 203 232 232 251 244 233 230 219 207 197 202 202 203 206 209 211 215 219 221 228 222 204 202 217 231 235 235 238 241 242 245 247 250
128 189 205 270 261 229 250 251 220 219 218 223 244 257 249 246 229 223 212 197 202 209 210 209 209 207 209 213 215 216 223 217 197 208 226 233 230 233 237 240 240 243 250 256
165 157 162 255 290 358 272 237 219 215 208 196 224 242 238 213 216 217 210 200 205 209 208 207 206 205 208 209 206 209 214 200 196 215 229 229 226 234 238 238 237 241 246 249
162 157 167 218 324 249 248 240 215 226 241 218 228 238 219 216 222 221 202 196 206 207 205 206 203 203 205 200 196 195 184 185 200 217 231 231 227 237 242 236 242 246 243 244
166 150 145 157 222 270 290 271 203 208 263 232 227 239 229 201 138 268 214 198 203 201 196 197 192 187 182 183 178 162 167 175 189 214 230 233 223 231 236 241 248 246 244 250
81 119 135 151 194 245 254 258 185 148 278 260 217 226 189 140 178 240 208 189 198 191 181 174 163 155 161 170 153 150 161 165 193 217 230 231 213 218 232 244 252 249 243 256
110 120 163 181 215 257 256 265 134 179 252 282 222 207 175 186 207 208 163 173 175 170 165 154 148 154 165 156 146 149 155 177 202 194 177 158 192 212 231 254 263 270 271 278
191 183 195 161 187 250 258 140 180 230 278 291 261 209 197 213 198 155 166 168 161 154 149 147 145 146 147 148 146 148 164 180 153 132 117 95 68 58 73 50 338 333 318 310
207 198 194 193 215 238 224 220 250 266 277 278 271 251 209 203 198 186 178 171 165 159 154 148 144 137 134 149 150 152 166 151 132 116 105 89 72 57 50 57 34 20 15 355
281 186 201 259 271 272 270 264 271 267 261 273 269 256 213 204 197 185 177 172 166 160 157 149 144 142 143 144 144 148 145 136 125 117 106 91 81 62 49 50 51 51 29 14
266 266 269 275 285 308 307 304 309 307 298 294 289 252 222 209 198 187 183 180 174 164 158 156 155 152 150 145 139 141 141 132 121 115 107 94 84 80 64 57 54 54 44 51
230 231 242 261 278 287 293 306 317 310 303 299 294 285 253 214 207 192 188 182 172 165 158 155 152 149 149 145 141 142 142 136 129 122 115 107 98 85 78 77 61 47 55 52
Height
1490 1498 1504 1504 1502 1504 1507 1512 1513 1507 1502 1506 1508 1506 1502 1502 1504 1505 1506 1508 1510 1512 1515 1517 1519 1519 1520 1520 1519 1519 1518 1516 1514 1513 1511 1510 1509 1508 1507 1506 1504 1503 1501 1499
1496 1500 1496 1497 1500 1503 1507 1511 1510 1505 1502 1505 1508 1506 1500 1499 1499 1500 1502 1504 1507 1510 1513 1515 1517 1518 1519 1519 1519 1518 1517 1516 1514 1513 1511 1510 1509 1508 1507 1506 1505 1503 1501 1499
1496 1495 1493 1497 1502 1506 1507 1509 1507 1507 1505 1505 1508 1509 1501 1496 1496 1498 1499 1501 1504 1507 1509 1512 1514 1516 1517 1518 1518 1517 1517 1515 1514 1513 1511 1510 1509 1508 1507 1506 1505 1503 1502 1500
1493 1492 1493 1497 1500 1502 1508 1500 1501 1505 1512 1518 1514 1526 1507 1499 1496 1495 1496 1498 1500 1504 1507 1510 1512 1514 1515 1517 1517 1517 1516 1515 1514 1513 1512 1511 1510 1508 1507 1506 1505 1503 1502 1500
1493 1492 1493 1497 1495 1497 1500 1498 1502 1506 1512 1520 1518 1524 1513 1501 1498 1494 1492 1494 1497 1501 1504 1507 1510 1512 1514 1515 1516 1516 1515 1515 1514 1513 1512 1511 1509 1508 1507 1506 1505 1504 1502 1501
1490 1489 1490 1491 1492 1494 1498 1503 1509 1516 1521 1530 1519 1525 1518 1504 1495 1490 1489 1491 1494 1498 1501 1505 1508 1511 1513 1514 1515 1515 1514 1514 1514 1513 1512 1510 1509 1508 1507 1506 1505 1504 1502 1501
1493 1491 1489 1490 1494 1497 1500 1513 1528 1529 1538 1533 1517 1520 1513 1493 1489 1487 1486 1488 1491 1495 1499 1502 1506 1508 1510 1512 1513 1513 1513 1513 1513 1512 1511 1510 1509 1508 1507 1506 1505 1504 1502 1501
1501 1502 1490 1488 1491 1497 1502 1509 1527 1535 1538 1531 1518 1520 1502 1487 1484 1484 1484 1486 1489 1493 1496 1500 1503 1506 1508 1510 1511 1512 1512 1512 1512 1511 1511 1510 1509 1508 1507 1506 1505 1504 1502 1501
1500 1500 1487 1486 1487 1492 1503 1508 1510 1525 1527 1531 1524 1512 1495 1484 1483 1483 1484 1485 1487 1490 1494 1497 1501 1504 1506 1508 1510 1511 1511 1511 1511 1511 1510 1509 1508 1508 1507 1506 1505 1503 1502 1501
1490 1497 1490 1487 1488 1492 1496 1505 1517 1525 1533 1535 1526 1516 1506 1488 1484 1483 1483 1484 1485 1489 1492 1495 1498 1502 1504 1506 1508 1509 1510 1510 1510 1509 1509 1508 1507 1507 1506 1505 1504 1503 1501 1500
1487 1496 1496 1491 1492 1495 1501 1506 1515 1526 1528 1537 1535 1519 1489 1484 1480 1480 1480 1481 1483 1486 1489 1492 1496 1499 1502 1504 1506 1507 1508 1508 1508 1508 1508 1507 1506 1506 1505 1504 1503 1502 1501 1499
1488 1497 1503 1496 1490 1489 1492 1499 1509 1519 1523 1530 1533 1518 1479 1478 1476 1476 1477 1479 1481 1484 1487 1490 1493 1496 1499 1501 1503 1505 1506 1506 1507 1507 1506 1506 1505 1505 1504 1503 1502 1501 1499 1498
1487 1497 1508 1506 1502 1494 1492 1496 1501 1509 1521 1531 1531 1511 1478 1475 1474 1474 1475 1477 1479 1482 1484 1487 1490 1493 1496 1498 1501 1502 1504 1504 1505 1505 1505 1505 1504 1504 1503 1502 1501 1500 1499 1497
1482 1493 1502 1507 1501 1493 1492 1494 1499 1505 1517 1521 1516 1500 1482 1476 1474 1472 1472 1474 1476 1479 1481 1484 1487 1490 1493 1495 1498 1499 1501 1502 1503 1503 1504 1503 1503 1503 1502 1501 1500 1499 1498 1497
1481 1491 1491 1490 1487 1487 1488 1488 1494 1497 1497 1503 1496 1492 1478 1471 1469 1468 1469 1471 1474 1476 1478 1481 1483 1486 1489 1492 1494 1496 1498 1500 1501 1501 1502 1502 1502 1501 1501 1500 1499 1498 1497 1496
1482 1487 1489 1488 1483 1485 1488 1484 1485 1487 1487 1488 1485 1481 1465 1463 1464 1465 1466 1468 1470 1472 1475 1477 1480 1483 1486 1488 1491 1493 1495 1497 1498 1499 1500 1500 1500 1500 1499 1499 1498 1497 1496 1495
1484 1488 1494 1496 1487 1486 1490 1478 1476 1476 1474 1475 1476 1465 1458 1460 1459 1458 1459 1462 1464 1467 1471 1474 1476 1479 1482 1485 1488 1490 1492 1494 1495 1496 1497 1498 1498 1498 1498 1497 1496 1495 1495 1494
1481 1487 1494 1496 1491 1497 1478 1462 1463 1465 1462 1460 1457 1452 1451 1451 1450 1452 1455 1457 1460 1463 1467 1470 1473 1476 1479 1482 1485 1487 1489 1491 1492 1494 1494 1495 1495 1495 1495 1494 1494 1493 1492 1491
1473 1482 1494 1498 1497 1490 1472 1459 1459 1462 1458 1448 1448 1445 1445 1447 1450 1450 1450 1453 1456 1460 1463 1467 1470 1473 1476 1479 1482 1484 1486 1488 1489 1490 1491 1492 1492 1492 1491 1491 1491 1490 1489 1488
1475 1477 1489 1496 1492 1491 1470 1452 1451 1456 1458 1439 1438 1438 1441 1445 1453 1446 1445 1449 1453 1456 1460 1463 1467 1470 1473 1476 1478 1481 1483 1485 1486 1487 1488 1488 1488 1488 1488 1487 1487 1486 1485 1484
1478 1482 1487 1492 1491 1480 1455 1449 1452 1464 1456 1436 1434 1434 1436 1438 1437 1437 1441 1446 1450 1453 1457 1460 1463 1467 1470 1473 1475 1478 1480 1482 1483 1484 1485 1485 1485 1485 1484 1483 1483 1482 1481 1480
1475 1481 1484 1488 1489 1478 1447 1449 1453 1449 1439 1436 1433 1431 1431 1430 1433 1436 1439 1443 1446 1450 1454 1457 1460 1463 1467 1470 1472 1475 1477 1479 1480 1481 1481 1481 1481 1481 1480 1479 1478 1477 1476 1475
1469 1467 1468 1468 1462 1447 1445 1445 1443 1442 1438 1435 1432 1430 1429 1430 1431 1433 1436 1440 1443 1447 1451 1454 1457 1460 1464 1466 1469 1471 1474 1475 1476 1477 1478 1478 1477 1477 1476 1475 1474 1473 1472 1471
1462 1460 1461 1461 1450 1443 1441 1440 1440 1438 1436 1433 1431 1429 1428 1427 1428 1431 1434 1437 1440 1444 1447 1450 1454 1457 1460 1463 1466 1468 1470 1472 1473 1474 1474 1474 1474 1473 1472 1471 1470 1469 1468 1467
1461 1460 1460 1457 1448 1441 1436 1437 1437 1434 1432 1429 1427 1426 1425 1425 1425 1427 1430 1433 1436 1439 1443 1447 1450 1453 1456 1459 1462 1465 1467 1468 1470 1470 1471 1471 1471 1470 1469 1469 1468 1467 1465 1465
1458 1458 1458 1453 1446 1445 1439 1435 1434 1432 1428 1426 1425 1423 1422 1422 1422 1423 1426 1429 1432 1435 1439 1442 1446 1450 1453 1456 1459 1461 1463 1465 1466 1467 1467 1468 1468 1467 1467 1467 1466 1465 1464 1463